Weather History for Quantico, VA

Change the Weather History Date:

Wednesday, July 10, 2013

  Actual Average Record
Temperature  
Mean Temperature 81 °F -  
Max Temperature 88 °F 83 °F 93 °F (1999)
Min Temperature 75 °F 64 °F 64 °F (1996)
Cooling Degree Days 16    
Growing Degree Days 31 (Base 50)    
Moisture  
Dew Point 73 °F    
Average Humidity 80    
Maximum Humidity 88    
Minimum Humidity 65    
Precipitation  
Precipitation 0.03 in - - ()
Sea Level Pressure  
Sea Level Pressure 29.97 in    
Wind  
Wind Speed 7 mph (SW)    
Max Wind Speed 18 mph    
Max Gust Speed 25 mph    
Visibility 10 miles    
Events Rain , Thunderstorm    
Averages and records for this station are not official NWS values.
T = Trace of Precipitation, MM = Missing Value Source: NWS Daily Summary

Daily Weather History Graph

Daily Weather History Graph

Search for Another Location

Airport:

Trip Planner

Search our weather history database for the weather conditions in past years. The results will help you decide how hot, cold, wet, or windy it might be!

Date:

Astronomy

Jul. 10, 2013 Rise Set
Actual Time 5:54 AM EDT 8:34 PM EDT
Civil Twilight 5:22 AM EDT 9:06 PM EDT
Nautical Twilight 4:43 AM EDT 9:44 PM EDT
Astronomical Twilight 3:59 AM EDT 10:28 PM EDT
Moon 8:10 AM EDT (7/10) 9:46 PM EDT (7/10)
Length of Visible Light 15h 43m
Length of Day
14h 40m
Waxing Crescent, 5% of the Moon is Illuminated
Jul 10
Waxing Crescent
Jul 15
First Quarter
Jul 22
Full
Jul 29
Last Quarter
Aug 6
New

Hourly Weather History & Observations

Time (EDT) Temp. Heat Index Dew Point Humidity Pressure Visibility Wind Dir Wind Speed Gust Speed Precip Events Conditions
12:56 AM 79.0 °F - 73.0 °F 82% 30.04 in 10.0 mi SW 5.8 mph - N/A   Overcast
1:56 AM 79.0 °F - 73.0 °F 82% 30.01 in 10.0 mi SSW 9.2 mph - N/A   Mostly Cloudy
2:56 AM 78.1 °F - 73.0 °F 84% 30.00 in 10.0 mi SW 8.1 mph - N/A   Clear
3:56 AM 78.1 °F - 73.0 °F 84% 30.00 in 10.0 mi SSW 9.2 mph - N/A   Mostly Cloudy
4:56 AM 78.1 °F - 73.0 °F 84% 30.01 in 10.0 mi Calm Calm - N/A   Clear
5:56 AM 77.0 °F - 72.0 °F 84% 30.01 in 10.0 mi SW 3.5 mph - N/A   Clear
6:56 AM 77.0 °F - 73.0 °F 88% 30.00 in 10.0 mi SSW 6.9 mph - N/A   Mostly Cloudy
7:56 AM 78.1 °F - 73.0 °F 84% 30.01 in 10.0 mi SW 8.1 mph - N/A   Mostly Cloudy
8:56 AM 79.0 °F - 73.9 °F 84% 30.02 in 10.0 mi Calm Calm - N/A   Overcast
9:56 AM 80.1 °F 84.2 °F 73.0 °F 79% 30.02 in 10.0 mi Calm Calm - N/A   Overcast
10:56 AM 80.1 °F 84.5 °F 73.9 °F 81% 30.03 in 10.0 mi WNW 4.6 mph - N/A   Overcast
11:56 AM 80.1 °F 84.5 °F 73.9 °F 81% 30.01 in 6.0 mi SSW 6.9 mph - 0.01 in   Overcast
12:56 PM 82.0 °F 89.4 °F 75.9 °F 82% 30.00 in 10.0 mi SSW 6.9 mph - N/A   Mostly Cloudy
1:56 PM 82.9 °F 90.8 °F 75.9 °F 79% 29.98 in 10.0 mi South 11.5 mph - N/A   Mostly Cloudy
2:56 PM 82.9 °F 90.8 °F 75.9 °F 79% 29.95 in 10.0 mi South 6.9 mph - N/A   Scattered Clouds
3:56 PM 86.0 °F 96.9 °F 77.0 °F 74% 29.91 in 10.0 mi South 12.7 mph - N/A   Scattered Clouds
4:56 PM 87.1 °F 95.4 °F 73.9 °F 65% 29.88 in 10.0 mi SSW 9.2 mph - N/A   Scattered Clouds
5:56 PM 86.0 °F 93.0 °F 73.0 °F 65% 29.89 in 10.0 mi SW 3.5 mph - N/A Thunderstorm Thunderstorm
6:56 PM 82.0 °F 85.9 °F 70.0 °F 67% 29.94 in 10.0 mi WSW 18.4 mph 25.3 mph 0.00 in Rain , Thunderstorm Light Thunderstorms and Rain
7:56 PM 75.0 °F - 70.0 °F 84% 29.94 in 7.0 mi SW 9.2 mph - 0.02 in Rain , Thunderstorm Light Thunderstorms and Rain
8:56 PM 75.0 °F - 69.1 °F 82% 29.94 in 10.0 mi WSW 3.5 mph - 0.00 in Rain Light Rain
9:56 PM 75.9 °F - 71.1 °F 85% 29.92 in 10.0 mi SSW 9.2 mph - 0.00 in   Partly Cloudy
10:56 PM 75.0 °F - 70.0 °F 84% 29.92 in 10.0 mi SSW 6.9 mph - N/A   Clear
11:56 PM 77.0 °F - 71.1 °F 82% 29.92 in 10.0 mi SSW 18.4 mph - N/A   Mostly Cloudy